Regional Weather Roundup
Issued by NWS

Home | Current Version | Previous Version | Text Only | Print | Product List | Glossary Off
Versions: 1 2 3 4 5 6 7 8 9 10 11 12 13 14 15 16 17 18 19 20 21 22 23 24 25 26 27 28 29 30 31 32 33 34 35 36 37 38 39 40 41 42 43 44 45 46 47 48 49 50

000
ASUS45 KBOU 151707
RWRCO

WEATHER ROUNDUP FOR COLORADO
NATIONAL WEATHER SERVICE DENVER/BOULDER CO
1100 AM MDT MON SEP 15 2014

NOTE: "FAIR" INDICATES FEW OR NO CLOUDS BELOW 12000 FEET WITH NO
SIGNIFICANT WEATHER AND/OR OBSTRUCTIONS TO VISIBILITY.

COZ001>005-013-030-031-151800-
...NORTHWEST COLORADO...

CITY           SKY/WX    TMP DP  RH WIND       PRES   REMARKS
CRAIG          MOSUNNY   70  40  33 N5        30.30F
HAYDEN         SUNNY     66  36  32 SE9       30.32F
MEEKER         SUNNY     70  40  33 CALM      30.31F
MOUNT WERNER   NOT AVBL
STEAMBOAT SPGS SUNNY     62  38  40 CALM      30.34F
WALDEN         SUNNY     59  32  36 CALM      30.42F
$$

COZ006>008-011-151800-
...WEST CENTRAL VALLEYS...

CITY           SKY/WX    TMP DP  RH WIND       PRES   REMARKS
GRAND JUNCTION SUNNY     74  38  27 SE10      30.21S
MONTROSE       SUNNY     72  44  36 SE6       30.29F
EAGLE          MOSUNNY   61  37  41 CALM      30.39F
RIFLE          SUNNY     69  41  36 VRB3      30.28F
DELTA          SUNNY     72  39  30 CALM      30.26F
NUCLA          SUNNY     72  45  37 CALM      30.32S
$$

COZ017>023-064>068-151800-
...SOUTHWEST COLORADO...

CITY           SKY/WX    TMP DP  RH WIND       PRES   REMARKS
DURANGO        SUNNY     73  46  38 VRB5      30.33F
CORTEZ         SUNNY     73  45  36 CALM      30.29S
PAGOSA SPRINGS SUNNY     71  39  30 CALM      30.40S
TELLURIDE      NOT AVBL
WOLF CREEK PAS MOSUNNY   52  32  46 NE7       30.69R
$$

COZ009-010-012-014-032>034-037-058>063-151800-
...CENTRAL COLORADO...

CITY           SKY/WX    TMP DP  RH WIND       PRES   REMARKS
ASPEN          SUNNY     66  37  34 N5        30.39F
BUENA VISTA    SUNNY     66  32  27 CALM      30.43F
COPPER MTN     MOSUNNY   55  25  30 W16G26    30.69S
BERTHOUD PASS  FAIR      45  43  93 NW5       30.73S
COTTONWOOD PAS SUNNY     66  28  24 SE6       30.56S
GUNNISON       SUNNY     59  37  44 CALM      30.46F
KREMMLING      SUNNY     59  34  38 NE3       30.42F
LEADVILLE      SUNNY     59  28  30 VRB3      30.54S
MONARCH PASS   CLOUDY    48  30  49 W6        30.80R
SALIDA         SUNNY     68  35  29 CALM      30.47F
SUNLIGHT       SUNNY     61  36  39 CALM      30.62S
WILKERSON PASS NOT AVBL
$$

COZ069>075-151800-
...SAN LUIS VALLEY/SANGRE DE CRISTO MOUNTAINS...

CITY           SKY/WX    TMP DP  RH WIND       PRES   REMARKS
ALAMOSA        SUNNY     68  45  43 N3        30.40F
LA VETA PASS   NOT AVBL
SAGUACHE       NOT AVBL
$$

COZ035-036-038>040-151800-
...NORTHERN COLORADO FRONT RANGE...

CITY           SKY/WX    TMP DP  RH WIND       PRES   REMARKS
DENVER INTL AP MOSUNNY   59  44  57 VRB6      30.36F
DMNS CITY PARK   N/A     63  39  40 E5        30.34F
AURORA         MOSUNNY   60  41  49 VRB2      30.37F
FRONT RANGE AP NOT AVBL
ERIE MUNI ARPT SUNNY     62  42  47 E6        30.35S
BOULDER MUN AP SUNNY     61  46  59 E3        30.35S
CENTENNIAL     MOSUNNY   59  42  53 NE5       30.37F
BROOMFIELD     MOSUNNY   63  43  48 E6        30.36F
FORT COLLINS   SUNNY     57  46  67 S6        30.36F
LONGMONT       SUNNY     64  49  57 E6        30.36F
$$

COZ041-046-047-076>085-087-088-151800-
...PIKES PEAK/PALMER DIVIDE AND SOUTHERN FOOTHILLS...

CITY           SKY/WX    TMP DP  RH WIND       PRES   REMARKS
COLO. SPRINGS  MOSUNNY   69  40  34 S12       30.38R
A. F. ACADEMY  SUNNY     64  39  40 VRB6      30.39R
ELLICOTT       NOT AVBL
FALCON         SUNNY     69  39  34 E10       30.41R
FORT CARSON    MOSUNNY   68  48  48 S17       30.37R
LIMON          CLOUDY    53  49  86 N10       30.37R
MONUMENT HILL  SUNNY     55  39  54 N8        30.40S
TRINIDAD       CLOUDY    55  49  80 NE6       30.41R
$$

COZ042>045-048>051-090-091-151800-
...NORTHEAST COLORADO...

CITY           SKY/WX    TMP DP  RH WIND       PRES   REMARKS
GREELEY ARPT   SUNNY     63  43  48 SE3       30.36S
AKRON          CLOUDY    56  48  74 N7        30.34F
BURLINGTON     CLOUDY    51  49  92 N14G20    30.33S FOG
WRAY           SUNNY     60  48  64 N12G18    30.34R
STERLING       SUNNY     59  48  67 E6        30.33F
HOLYOKE        SUNNY     59  43  55 NE6       30.34S
FORT MORGAN    SUNNY     59  46  61 NE5       30.35S
$$

COZ086-089-092>099-151800-
...SOUTHEAST COLORADO...

CITY           SKY/WX    TMP DP  RH WIND       PRES   REMARKS
PUEBLO         MOSUNNY   67  51  56 SE18      30.34R
LA JUNTA       CLOUDY    61  53  75 N12       30.33R
LAMAR          CLOUDY    64  55  72 NE18      30.28R
SPRINGFIELD      N/A     56  55  97 N22       30.29R
$$



USA.gov is the U.S. government's official web portal to all federal, state and local government web resources and services.